Theta_e
336 337 328 330 335 336 334 331 325 321 325 322 329 327 325 323 323 323 323 333 332 332 331 332 332 332 332 332 332 331 330 330 329 329 328 328 328 328 327 327 326 326 326
335 336 333 331 330 335 334 327 321 324 324 320 324 324 322 322 321 321 322 325 332 332 331 330 330 330 329 330 329 329 329 329 329 328 328 328 328 328 327 327 326 326 325
340 334 334 331 332 329 329 327 322 322 323 321 320 322 321 321 321 321 321 321 326 331 330 330 329 329 329 329 329 329 328 328 328 328 327 327 327 326 325 324 324 323 323
341 336 335 331 333 329 330 323 320 319 320 322 321 317 318 320 320 321 320 321 319 321 328 330 330 330 330 330 330 329 328 327 327 327 327 326 325 324 324 323 323 323 323
341 337 333 330 332 330 327 325 322 319 320 320 325 317 317 318 320 323 320 320 319 320 319 330 330 330 330 330 330 329 328 328 327 326 325 325 324 324 323 323 322 322 322
342 336 331 328 331 329 325 325 322 322 322 321 324 322 318 318 319 320 320 321 320 320 319 320 323 325 330 330 330 329 329 328 327 326 325 324 324 323 323 322 322 321 321
338 330 326 325 327 327 326 324 323 320 320 320 317 316 318 317 316 318 319 319 320 321 319 320 320 321 325 331 331 330 329 328 328 327 325 324 324 323 323 323 321 320 320
333 330 329 326 327 328 328 327 323 320 321 321 316 312 310 314 318 318 317 319 319 321 320 321 320 320 320 323 326 332 330 330 329 328 326 326 324 324 324 322 321 321 320
333 331 329 328 327 328 327 324 323 320 318 319 320 316 309 308 311 316 318 319 319 318 320 320 320 320 320 320 326 330 333 332 330 329 327 325 325 325 325 323 322 321 320
335 334 331 331 328 329 327 326 327 322 320 319 319 321 316 314 309 308 314 319 319 318 319 320 320 321 320 320 325 329 332 333 333 332 330 327 326 326 326 325 324 322 321
336 336 333 331 328 328 328 327 327 324 323 321 318 317 315 314 313 309 307 311 317 321 320 320 320 320 321 320 320 325 331 332 332 333 333 333 329 328 329 328 327 325 323
334 334 335 332 330 328 327 326 327 326 325 322 320 318 316 315 312 312 308 308 310 316 322 322 321 321 322 322 325 327 329 330 330 330 332 332 332 332 332 330 329 330 327
333 334 333 331 330 329 329 328 326 325 325 323 321 320 321 322 319 315 312 311 311 314 314 322 323 323 323 323 324 329 331 329 328 328 329 330 331 331 332 331 331 330 329
333 334 333 333 332 331 330 328 327 326 325 326 324 323 324 323 321 322 320 315 313 311 312 314 318 324 323 324 326 330 327 328 328 327 326 327 329 329 330 330 330 329 329
337 334 332 332 332 332 332 328 328 328 324 326 326 325 325 327 326 325 323 321 317 313 311 310 311 319 323 325 326 327 327 329 329 326 326 326 326 327 327 327 327 326 326
327 327 330 331 330 330 329 326 325 324 322 324 325 322 324 326 326 327 327 325 321 319 312 310 313 318 321 325 325 326 326 328 328 327 327 325 324 324 324 323 323 323 324
329 330 331 330 329 328 326 323 323 324 323 322 322 321 323 323 323 324 325 325 323 319 315 314 315 317 317 319 321 321 324 325 327 326 326 325 322 321 321 320 320 320 322
328 327 328 327 326 327 326 324 323 322 320 318 318 318 318 322 317 319 322 321 318 317 314 311 313 314 316 317 318 318 319 322 321 326 324 322 319 318 317 317 317 317 317
323 323 322 321 320 319 319 319 320 319 318 316 315 315 316 315 314 315 315 316 315 318 317 314 313 314 315 316 314 314 314 314 316 323 321 319 317 316 316 316 315 314 312
320 319 319 318 319 318 320 319 318 315 314 314 313 312 313 313 312 312 313 313 312 312 315 316 315 314 314 314 313 311 310 311 312 319 319 317 316 316 315 315 314 313 309
320 317 315 314 315 314 315 311 312 311 310 311 311 311 312 315 320 317 312 311 309 311 313 312 313 313 312 309 311 312 312 310 308 311 313 312 313 313 313 313 313 313 309
315 313 310 310 310 311 309 307 310 308 308 308 308 309 310 314 314 315 314 315 312 308 308 306 307 309 307 313 312 312 312 308 307 310 309 308 310 307 308 308 310 309 308
310 308 306 306 309 307 307 304 307 306 305 305 306 308 309 312 310 307 309 310 310 312 311 307 305 305 303 306 308 310 311 311 311 309 309 306 308 306 308 309 307 307 307
307 305 305 307 307 309 306 303 305 304 304 306 307 307 306 305 305 305 305 304 304 306 307 310 308 307 306 306 308 307 308 311 312 310 312 306 308 307 308 309 308 307 306
305 305 308 307 306 308 305 304 304 304 304 304 305 305 305 305 304 298 302 301 301 302 308 309 308 306 304 305 308 310 309 308 306 306 309 307 307 307 308 307 309 307 305
308 310 308 308 309 308 304 303 303 304 302 302 302 305 305 304 301 296 300 299 298 300 302 303 304 308 307 307 304 312 308 305 306 304 308 307 306 305 301 303 306 308 306
Wind_Speed
4 3 3 3 4 4 3 3 0 4 5 5 7 10 7 6 5 3 2 11 10 9 9 10 10 10 10 11 12 14 14 14 15 14 14 14 14 14 13 13 12 12 12
4 4 3 2 3 3 3 3 3 3 5 5 4 9 8 7 6 6 4 5 11 10 9 10 11 10 11 13 13 13 14 14 14 13 13 13 12 12 12 12 11 11 10
4 3 2 2 2 3 5 4 3 3 4 4 4 6 6 7 6 6 5 4 7 11 10 11 11 11 12 12 13 13 13 13 13 13 12 12 12 11 11 11 11 11 10
4 3 3 3 2 3 2 2 1 2 2 4 5 4 4 5 6 6 5 4 4 5 11 12 12 13 13 13 14 13 13 13 13 12 12 11 11 10 10 10 10 10 10
6 4 3 4 2 2 2 2 2 2 3 1 3 5 4 5 7 7 7 7 7 6 5 15 14 13 14 14 14 14 14 14 13 12 11 11 10 10 9 9 9 9 8
5 5 4 4 3 3 1 2 3 1 2 2 2 6 7 5 5 7 8 7 6 7 6 7 8 9 16 15 15 15 15 15 15 14 13 12 11 10 9 8 8 8 7
5 5 3 3 2 2 3 4 2 3 2 1 2 3 2 4 5 5 6 6 7 8 7 7 6 6 10 19 18 18 17 17 16 16 16 14 13 12 10 10 9 8 7
6 6 5 4 4 1 3 4 3 2 2 2 2 2 1 3 4 6 4 7 10 8 9 10 9 9 7 8 14 22 22 20 19 18 18 16 16 15 13 12 11 10 9
7 6 6 5 6 4 4 4 3 4 4 2 4 4 0 5 1 2 9 8 10 9 10 11 11 11 10 9 13 19 22 22 23 22 20 19 18 17 15 14 13 12 11
6 5 5 5 5 4 4 4 4 4 2 5 1 4 4 4 4 3 2 8 9 12 12 10 11 12 13 10 16 20 24 24 24 24 23 22 21 19 18 16 15 14 13
6 6 6 5 5 4 4 5 4 5 4 3 4 3 3 3 4 4 4 4 3 9 9 11 11 11 14 12 11 15 23 24 25 24 24 24 25 23 21 19 17 17 15
3 5 5 5 5 6 6 6 6 6 5 5 4 4 4 4 3 4 3 5 5 5 11 10 11 11 12 12 18 24 24 25 26 24 23 24 24 24 23 22 20 19 18
3 6 5 6 5 6 6 5 5 6 6 4 6 6 5 7 3 4 3 4 5 4 4 8 11 12 12 12 14 24 27 27 26 26 24 22 23 23 22 21 21 20 18
4 3 6 6 7 7 6 5 4 6 6 6 9 7 6 6 5 7 6 5 6 4 4 7 6 9 10 11 17 26 17 27 27 26 24 23 21 20 21 19 18 15 14
1 3 1 3 5 6 7 5 5 8 5 7 8 7 6 7 6 7 7 7 7 8 11 4 4 6 7 10 15 15 17 23 29 27 24 23 21 17 17 16 13 11 11
1 2 4 4 5 6 6 5 5 6 5 7 5 6 8 8 8 7 7 7 9 11 7 4 4 3 4 5 9 10 13 19 25 24 23 22 20 18 16 14 13 12 11
3 4 5 4 4 5 6 2 5 6 5 6 6 6 9 7 7 6 3 5 8 5 8 2 2 2 5 5 4 5 5 8 9 23 23 23 19 16 14 13 11 11 11
5 6 5 5 5 5 5 5 6 6 5 6 6 5 6 3 5 5 3 3 2 4 4 5 3 3 2 5 5 1 3 4 5 14 18 18 17 16 14 12 11 12 12
6 6 6 6 6 5 6 4 3 4 4 4 5 5 6 5 5 4 5 5 4 4 4 3 5 3 4 3 1 4 2 1 2 9 10 13 14 17 15 14 13 12 11
6 3 5 5 5 4 4 5 5 5 6 6 6 6 7 6 6 6 5 6 4 4 4 5 6 5 5 3 3 4 4 2 2 3 5 5 11 11 13 14 13 13 12
5 3 4 5 6 3 3 5 5 5 6 7 7 7 7 8 12 9 4 6 4 3 4 6 5 4 4 3 6 4 6 2 1 3 6 6 6 6 8 11 11 15 13
2 4 6 4 6 4 8 8 4 6 7 6 7 8 7 10 7 10 11 9 8 6 5 4 4 6 6 5 5 6 7 5 6 5 8 7 8 9 7 6 11 13 15
0 2 4 4 5 6 9 8 6 5 6 6 7 7 6 4 5 4 7 7 8 10 10 6 6 6 5 6 5 6 6 6 7 6 9 8 7 8 6 6 13 14 14
5 5 4 5 5 6 7 9 7 5 6 7 7 7 6 7 3 4 4 6 6 6 6 5 6 6 6 6 6 6 6 8 5 4 9 8 6 8 8 7 13 15 14
3 2 1 4 5 8 10 10 9 5 6 9 9 7 6 7 5 4 3 5 6 6 4 8 11 12 11 11 8 4 6 6 6 3 8 5 4 4 7 7 7 12 15
1 1 4 3 5 7 8 15 13 4 6 6 8 7 7 7 7 6 5 4 6 7 6 7 4 6 8 9 12 10 5 7 3 3 6 8 5 4 3 2 4 4 6
Wind_Direction
167 142 206 233 219 188 202 248 94 67 53 87 135 125 133 131 139 135 125 131 131 129 130 131 131 132 127 124 130 126 123 121 120 119 114 113 111 108 104 100 97 94 91
148 146 168 200 249 190 178 188 145 87 98 105 137 140 152 157 148 142 144 143 140 140 142 140 141 140 139 138 137 133 132 129 126 125 122 120 115 110 105 101 99 97 96
146 138 111 109 161 164 180 191 101 70 67 112 127 162 154 154 158 159 158 158 152 155 155 155 151 150 150 148 145 142 141 138 137 133 130 126 119 115 111 106 100 93 90
161 140 112 139 185 151 182 128 158 115 108 130 161 187 161 177 164 167 170 170 166 164 164 164 164 163 161 158 156 156 153 150 148 144 141 139 133 127 120 113 107 102 98
174 150 145 147 137 133 186 208 212 155 154 175 228 168 189 191 183 173 185 181 176 176 169 172 174 174 172 171 168 166 164 162 160 158 155 151 146 139 131 126 119 110 104
178 155 152 141 132 130 203 295 264 266 252 198 196 185 183 195 197 183 189 185 191 183 184 182 176 181 184 184 182 179 177 176 174 172 169 169 163 161 156 145 134 129 123
137 133 170 158 173 157 234 218 218 230 299 17 58 354 248 202 201 207 187 188 196 197 198 194 191 184 189 192 193 192 190 189 186 184 182 182 179 179 175 167 161 154 149
158 170 179 185 167 164 271 274 213 216 238 182 156 105 250 313 231 205 202 204 200 198 203 205 196 198 197 197 197 199 198 197 196 196 194 192 191 189 185 178 178 173 166
191 192 195 194 196 168 190 210 230 205 230 293 207 158 44 229 200 196 204 205 201 201 208 206 204 200 203 204 207 208 205 203 203 202 201 202 202 199 196 192 188 185 181
211 201 202 208 222 209 202 202 192 222 194 246 282 221 208 167 205 299 268 215 196 205 209 207 207 209 204 207 208 209 211 209 210 208 206 206 210 210 207 205 200 197 194
226 214 208 215 226 222 241 222 232 217 205 230 206 239 238 220 207 184 250 262 224 218 209 210 207 207 207 207 212 215 213 213 215 215 210 209 211 214 212 212 212 209 205
238 246 219 219 227 231 226 222 216 225 232 230 232 227 211 215 206 192 231 246 221 231 218 212 206 208 209 208 212 213 212 211 213 217 219 215 212 214 216 215 216 219 213
248 239 222 225 237 242 239 239 236 238 230 219 217 228 228 238 209 199 191 249 231 246 228 221 214 213 213 209 214 214 212 210 210 213 216 216 215 213 219 223 226 226 226
240 229 228 221 232 237 240 249 259 256 256 253 250 235 240 238 228 236 227 211 263 253 230 235 216 214 211 210 215 216 214 210 210 210 212 214 214 211 211 216 222 231 229
264 12 312 250 261 258 253 260 254 262 263 263 258 260 247 263 250 226 217 211 222 250 246 254 223 216 217 214 221 214 213 209 209 207 205 206 206 201 202 201 205 213 218
134 296 290 285 285 273 270 273 272 277 272 277 263 263 268 265 263 250 236 230 225 237 241 193 244 294 263 221 225 215 225 220 210 204 202 200 194 187 186 196 203 209 209
349 297 278 283 266 274 290 296 280 282 280 290 292 281 279 279 272 263 249 254 249 234 244 251 159 321 304 281 233 198 211 216 211 199 193 190 177 174 188 191 195 203 199
37 29 16 12 2 346 338 331 319 315 300 305 301 308 293 305 310 295 286 278 224 165 197 194 212 190 212 321 330 276 161 168 212 207 184 172 168 168 180 185 188 188 181
49 44 47 37 17 29 37 357 299 318 340 333 310 308 293 301 294 282 274 263 248 261 210 208 236 196 181 204 354 334 352 3 141 168 163 158 172 171 182 181 181 183 175
85 46 36 23 15 342 337 337 334 330 328 309 303 305 297 296 283 279 267 259 254 242 234 234 243 221 206 196 177 187 217 176 134 113 152 188 173 181 180 179 178 182 181
64 49 23 0 358 330 283 309 302 290 290 292 294 289 279 276 281 279 238 263 227 231 259 256 255 244 222 193 215 201 193 148 157 132 182 172 167 192 197 183 191 190 185
101 32 4 348 318 298 327 322 274 269 279 275 279 292 294 300 302 303 303 270 225 202 220 204 224 232 232 221 219 221 218 181 198 183 180 187 177 188 182 191 186 198 190
158 274 292 289 291 312 300 301 328 285 278 277 272 275 286 281 302 306 313 321 303 246 223 191 209 214 206 210 188 206 213 225 223 173 183 189 173 203 196 180 197 204 194
220 233 268 299 300 287 261 293 308 296 284 284 272 271 270 282 266 309 331 328 328 305 261 221 224 224 209 205 196 189 204 229 223 175 179 197 173 202 183 180 197 211 199
246 305 266 307 326 302 275 290 299 316 303 300 308 300 298 283 252 291 337 312 309 296 294 240 230 242 217 201 191 189 228 219 211 166 184 180 157 167 176 179 188 200 202
348 303 300 356 346 291 302 301 309 312 301 308 298 302 305 274 250 306 280 276 286 274 291 304 287 275 254 247 233 215 188 225 196 187 184 188 154 145 135 99 157 190 195